Wind_Speed
30 30 29 28 28 28 28 29 28 28 30 31 34 36 37 38 39 41 42 41 39 38 38 39 40 40 40 40 39 39 37 37 35 32 30 28 27 26
28 27 27 27 27 28 29 29 29 29 29 31 32 34 36 37 38 38 40 41 40 39 38 38 39 40 40 40 38 37 36 37 35 33 31 29 29 28
27 28 29 28 28 29 30 31 30 30 30 31 31 31 32 34 36 37 38 38 38 38 38 38 39 40 40 39 37 36 36 36 35 33 31 31 30 29
28 29 30 30 30 30 31 33 33 33 33 33 32 31 30 30 31 33 35 37 38 39 39 39 40 40 40 39 37 36 36 35 34 33 32 32 32 30
29 30 31 31 32 32 34 35 35 36 36 36 35 33 31 29 27 27 29 31 31 33 34 35 35 35 35 35 35 35 34 33 33 33 33 32 33 32
30 31 32 32 33 34 34 35 36 37 38 38 37 35 34 32 29 26 24 24 24 26 27 28 28 27 28 29 30 31 32 32 31 32 33 34 34 33
29 30 31 32 33 34 34 35 36 37 37 38 37 36 35 34 32 29 26 23 20 21 21 22 22 22 23 25 26 27 28 29 29 30 31 31 30 28
29 30 31 33 33 34 33 33 34 34 34 35 35 35 35 34 34 32 30 27 23 21 19 20 22 21 20 21 22 24 26 28 30 31 29 26 25 25
28 29 30 31 32 32 32 32 32 33 33 33 33 33 33 34 35 35 33 31 29 27 22 21 20 20 20 21 22 23 25 27 28 28 27 26 26 26
26 27 27 28 29 29 30 30 30 31 32 33 33 34 35 35 35 35 35 34 32 31 28 26 24 23 22 23 24 25 25 26 27 26 26 27 27 27
22 23 24 25 26 27 27 28 29 30 32 33 34 35 36 36 36 35 35 35 35 34 33 31 28 25 24 23 25 26 27 27 27 27 27 28 29 28
19 20 22 23 24 24 26 27 28 29 31 32 33 34 35 36 36 36 36 35 36 35 36 35 34 32 30 29 28 27 28 29 29 29 29 29 28 28
17 18 19 20 22 24 26 27 29 30 32 33 34 34 35 36 36 36 36 36 35 35 35 35 36 36 36 35 33 31 30 30 30 30 30 31 30 30
14 16 18 20 22 24 26 28 30 31 32 33 34 35 35 36 36 37 37 37 37 35 34 33 34 36 37 38 37 36 33 32 33 35 35 35 35 35
15 17 19 21 23 24 26 27 29 29 30 30 30 31 32 33 34 35 36 37 37 37 37 36 35 36 37 38 39 39 39 37 34 35 37 39 40 40
16 18 20 21 22 22 23 24 24 25 25 25 25 26 27 28 30 31 33 35 36 37 37 37 36 35 35 36 37 38 40 41 42 39 36 37 40 43
16 18 19 19 20 21 22 22 23 23 22 23 23 23 24 25 25 26 28 31 33 34 36 36 36 36 35 35 35 35 37 38 40 42 42 40 38 39
15 16 17 18 19 21 22 22 22 22 22 22 22 23 23 23 24 24 25 27 30 32 33 34 35 36 37 37 37 36 37 39 40 42 43 44 44 44
13 14 16 18 20 22 23 23 23 23 23 22 22 21 21 22 22 23 24 25 26 28 30 32 34 36 37 38 39 39 38 38 39 41 43 44 45 46
12 13 15 18 21 23 24 25 25 25 24 23 22 20 20 20 21 22 22 23 25 26 28 30 33 35 38 40 40 41 40 40 39 39 40 41 43 45
11 12 15 19 22 24 25 27 28 28 27 26 25 23 22 21 21 22 22 23 24 25 27 28 30 32 36 39 41 43 43 43 42 41 40 39 39 41
10 12 15 18 21 23 25 28 29 30 29 28 26 25 24 24 24 24 24 25 25 26 26 27 28 29 31 34 37 40 41 42 43 43 42 41 39 39
10 12 14 17 19 22 25 27 29 31 31 30 28 27 27 26 25 25 25 26 26 27 27 27 28 28 29 30 32 34 37 40 41 42 42 42 42 41
Wind_Direction
266 267 267 268 270 271 271 272 272 274 276 279 281 282 279 275 272 270 269 267 266 264 263 259 257 257 258 258 257 255 253 248 245 243 240 239 239 240
262 263 264 266 268 269 269 270 272 274 276 280 284 285 282 276 272 270 267 265 263 262 264 262 260 259 259 259 259 256 250 246 241 238 237 237 236 236
261 263 265 266 268 268 268 269 271 274 277 282 286 288 287 281 274 270 268 265 263 261 261 260 260 259 258 258 258 257 251 246 239 235 233 233 234 235
264 266 268 269 270 270 268 268 269 272 276 280 283 286 289 289 280 273 269 266 264 261 261 260 259 256 257 257 255 253 248 242 235 230 230 231 233 234
267 269 271 272 271 271 271 271 271 272 273 276 279 281 284 288 287 278 271 267 264 261 261 259 254 252 251 250 249 246 241 235 230 228 228 230 231 231
272 273 274 274 274 274 273 272 272 271 272 273 274 276 279 281 285 286 276 268 263 259 259 254 245 243 243 244 242 239 234 228 225 225 226 227 228 230
275 275 276 276 276 275 275 273 272 272 272 272 273 274 275 276 278 280 279 274 271 266 259 249 243 242 242 242 240 236 232 226 223 223 223 223 225 227
277 277 277 277 276 276 276 275 274 274 274 274 274 274 274 273 274 274 274 272 271 269 265 253 249 244 241 242 241 239 234 230 227 229 231 229 228 228
279 278 277 276 276 277 277 278 279 279 278 277 278 277 275 273 271 270 270 269 269 268 265 260 258 252 245 244 243 241 238 235 234 234 233 230 227 225
279 278 278 278 279 280 280 281 281 280 280 280 280 279 277 275 273 270 269 266 264 264 264 258 257 250 241 241 242 241 238 235 234 233 230 227 224 223
279 279 280 281 282 282 283 282 282 282 281 281 281 280 279 277 275 272 268 266 264 261 260 258 256 252 248 246 241 234 233 233 233 232 229 227 224 223
280 283 286 287 287 286 286 285 284 284 283 282 280 279 278 277 275 273 270 268 266 263 259 256 254 252 254 254 251 239 231 232 232 230 230 229 229 229
284 286 289 290 290 290 289 288 287 286 284 283 281 280 278 276 274 273 271 269 266 264 261 257 254 251 251 250 249 244 236 231 230 231 232 231 233 235
288 291 293 294 294 294 293 292 291 289 288 286 285 283 281 279 277 274 271 269 267 265 262 258 254 252 250 248 248 245 240 236 234 234 235 234 234 235
293 296 298 299 300 300 299 298 295 294 293 291 289 286 284 282 279 276 273 271 268 266 264 262 259 256 253 251 250 248 247 244 242 239 238 237 237 235
297 300 303 305 307 308 307 305 301 298 296 295 293 292 290 286 283 280 277 273 271 267 264 263 261 259 257 255 253 251 249 248 248 248 245 241 240 239
298 305 310 315 317 317 315 311 308 304 300 298 297 296 294 292 289 284 280 277 274 271 268 264 261 259 258 256 254 251 248 247 247 248 247 247 246 244
302 313 321 326 328 326 323 319 314 309 305 302 300 298 297 295 292 288 285 281 276 272 270 268 265 262 258 257 256 255 253 250 247 247 247 248 250 251
309 321 329 334 336 335 333 330 325 320 315 312 307 303 300 297 294 292 288 285 281 276 271 268 266 264 263 260 257 256 254 252 250 248 248 248 249 250
314 328 336 340 341 341 340 338 335 331 328 324 320 314 308 303 299 296 293 289 285 281 276 271 268 266 264 261 258 255 253 252 251 249 248 248 247 247
315 328 337 342 343 343 342 341 339 337 334 331 327 322 316 309 303 299 296 294 290 287 283 278 273 270 267 263 259 256 254 252 251 248 247 246 246 245
313 326 336 342 344 345 344 342 341 339 337 334 330 326 321 315 307 301 296 294 293 290 288 285 280 275 271 266 261 257 255 252 250 248 246 244 243 242
304 321 333 339 342 344 345 345 344 342 339 336 332 328 324 319 313 305 299 295 293 291 290 288 284 280 275 270 264 259 256 252 249 247 246 244 242 239
Height
5784 5785 5785 5784 5784 5784 5783 5783 5782 5781 5779 5776 5774 5773 5772 5771 5770 5769 5768 5768 5768 5768 5769 5769 5770 5771 5773 5774 5775 5778 5779 5782 5785 5787 5790 5792 5795 5797
5775 5776 5776 5776 5775 5775 5775 5774 5773 5772 5770 5768 5766 5764 5762 5760 5759 5758 5757 5757 5758 5758 5759 5760 5760 5761 5763 5764 5765 5767 5769 5772 5775 5778 5781 5784 5787 5789
5766 5767 5767 5767 5767 5766 5766 5765 5764 5763 5762 5760 5758 5755 5753 5751 5749 5748 5747 5747 5747 5748 5749 5750 5750 5751 5752 5754 5756 5758 5760 5762 5765 5768 5772 5775 5778 5781
5757 5758 5758 5758 5758 5757 5757 5756 5755 5754 5753 5752 5750 5747 5745 5742 5740 5738 5737 5737 5737 5738 5738 5739 5740 5741 5742 5745 5747 5748 5750 5753 5756 5759 5763 5766 5769 5772
5749 5749 5749 5749 5748 5748 5747 5747 5746 5745 5744 5743 5741 5740 5738 5736 5733 5731 5729 5728 5728 5727 5728 5728 5729 5731 5733 5735 5737 5740 5742 5745 5748 5751 5754 5758 5761 5764
5740 5740 5740 5739 5739 5739 5738 5737 5736 5736 5735 5734 5733 5731 5730 5729 5728 5725 5723 5721 5720 5720 5719 5720 5721 5722 5725 5727 5730 5732 5734 5737 5740 5743 5746 5749 5752 5756
5732 5732 5731 5731 5730 5730 5729 5729 5728 5727 5726 5725 5724 5723 5722 5722 5722 5720 5718 5715 5714 5713 5713 5713 5714 5716 5717 5719 5722 5724 5726 5729 5731 5734 5737 5740 5744 5747
5725 5724 5723 5723 5722 5721 5721 5720 5719 5718 5717 5716 5715 5714 5714 5713 5713 5713 5712 5710 5709 5708 5707 5707 5707 5708 5710 5712 5714 5717 5719 5722 5724 5727 5730 5733 5736 5740
5717 5716 5715 5715 5714 5713 5712 5711 5710 5709 5708 5707 5706 5705 5704 5704 5704 5704 5704 5703 5702 5701 5701 5701 5701 5702 5703 5705 5707 5710 5713 5715 5718 5720 5723 5726 5729 5733
5710 5709 5708 5707 5706 5705 5704 5702 5701 5700 5699 5698 5697 5695 5695 5694 5694 5695 5695 5695 5694 5694 5694 5695 5695 5695 5697 5699 5700 5703 5705 5708 5711 5714 5716 5720 5723 5727
5703 5702 5701 5700 5699 5698 5696 5695 5694 5692 5690 5689 5687 5686 5685 5685 5684 5685 5685 5685 5686 5686 5687 5688 5688 5689 5690 5692 5693 5695 5698 5701 5704 5707 5710 5713 5717 5720
5697 5696 5695 5694 5693 5691 5689 5688 5685 5683 5681 5679 5678 5677 5676 5675 5674 5674 5674 5675 5675 5676 5677 5679 5680 5682 5683 5685 5686 5688 5690 5693 5696 5699 5702 5706 5709 5713
5692 5691 5690 5688 5687 5685 5682 5680 5677 5675 5672 5670 5668 5667 5666 5665 5664 5664 5664 5664 5665 5666 5667 5669 5671 5672 5674 5677 5679 5681 5683 5685 5688 5691 5694 5697 5701 5705
5688 5687 5686 5684 5682 5679 5676 5673 5670 5667 5664 5662 5659 5657 5656 5654 5653 5653 5653 5653 5654 5655 5657 5659 5660 5662 5664 5667 5669 5672 5675 5677 5679 5682 5685 5688 5691 5695
5684 5683 5681 5679 5676 5673 5669 5666 5662 5659 5656 5653 5650 5648 5646 5644 5642 5642 5641 5642 5643 5644 5646 5648 5650 5652 5654 5656 5659 5661 5664 5667 5669 5672 5675 5678 5681 5684
5680 5678 5676 5673 5670 5666 5663 5659 5656 5652 5648 5645 5643 5640 5638 5635 5633 5632 5631 5630 5631 5633 5635 5637 5639 5641 5643 5645 5647 5650 5653 5655 5658 5660 5663 5666 5669 5672
5676 5674 5671 5668 5664 5660 5657 5653 5649 5646 5642 5639 5636 5633 5630 5627 5625 5623 5622 5620 5620 5621 5622 5625 5627 5630 5632 5634 5636 5638 5640 5643 5646 5649 5652 5654 5656 5659
5671 5669 5666 5663 5659 5655 5651 5647 5644 5640 5636 5632 5629 5626 5623 5620 5618 5616 5614 5612 5611 5611 5612 5613 5614 5617 5619 5622 5624 5626 5628 5630 5633 5636 5639 5642 5644 5647
5667 5664 5661 5658 5654 5650 5646 5642 5637 5634 5629 5625 5622 5619 5616 5613 5611 5608 5606 5605 5603 5602 5602 5602 5603 5604 5606 5609 5612 5614 5616 5618 5620 5623 5626 5629 5631 5634
5662 5659 5657 5653 5650 5646 5641 5637 5632 5627 5623 5619 5615 5612 5609 5607 5604 5601 5599 5597 5595 5594 5593 5593 5593 5592 5593 5595 5597 5599 5602 5605 5608 5610 5613 5615 5618 5621
5657 5655 5652 5649 5646 5641 5637 5632 5627 5622 5617 5613 5609 5605 5602 5600 5597 5595 5592 5590 5588 5586 5584 5583 5582 5581 5581 5582 5583 5585 5588 5591 5594 5597 5600 5603 5606 5608
5653 5651 5648 5645 5642 5638 5633 5628 5623 5618 5613 5608 5603 5600 5596 5593 5590 5587 5585 5583 5580 5578 5575 5573 5572 5571 5570 5569 5569 5571 5574 5577 5580 5583 5587 5590 5593 5596
5648 5646 5644 5641 5638 5634 5630 5625 5619 5614 5609 5604 5599 5594 5590 5586 5583 5580 5577 5574 5572 5569 5567 5564 5562 5561 5559 5558 5558 5559 5560 5562 5565 5569 5572 5576 5580 5584